Regional Weather Roundup
Issued by NWS

Home | Current Version | Previous Version | Text Only | Print | Product List | Glossary On
Versions: 1 2 3 4 5 6 7 8 9 10 11 12 13 14 15 16 17 18 19 20 21 22 23 24 25 26 27 28 29 30 31 32 33 34 35 36 37 38 39 40 41 42 43 44 45 46 47 48 49 50
000
ASUS43 KMKX 201200
RWRWI

WISCONSIN REGIONAL WEATHER ROUNDUP
NATIONAL WEATHER SERVICE MILWAUKEE/SULLIVAN WI
700 AM CDT SUN APR 20 2014

NOTE: "FAIR" INDICATES FEW OR NO CLOUDS BELOW 12,000 FEET WITH NO
SIGNIFICANT WEATHER AND/OR OBSTRUCTIONS TO VISIBILITY.

WIZ001-002-006>008-014>016-023>028-201300-
NORTHWEST WISCONSIN

CITY           SKY/WX    TMP DP  RH WIND       PRES   REMARKS
SUPERIOR ARPT  CLEAR     27  26  97 CALM      30.06R FOG
ASHLAND        FOG       36  36 100 W3        30.05R VSB<1/4
6HR MIN TEMP:  35; 6HR MAX TEMP:  43;

HAYWARD        MOCLDY    33  31  92 CALM      30.05R FOG
6HR MIN TEMP:  33; 6HR MAX TEMP:  45;

SIREN          FOG       33  33  99 CALM      30.05R VSB<1/4
RICE LAKE      FOG       40  40  97 CALM      30.06R VSB<1/4
LADYSMITH      CLOUDY    48  46  95 N3        30.06R FOG
EAU CLAIRE     NOT AVBL
MENOMONIE      CLOUDY    49  48  97 CALM      30.04R FOG
NEW RICHMOND   FOG       45  45 100 CALM      30.05R VSB<1/4
OSCEOLA        FOG       45  45 100 CALM      30.08R VSB<1/4
$$

WIZ003>005-009-010-017-018-201300-
NORTH CENTRAL WISCONSIN

CITY           SKY/WX    TMP DP  RH WIND       PRES   REMARKS
WOODRUFF       CLOUDY    44  38  79 S3        30.06R
RHINELANDER    CLOUDY    48  39  71 S7        30.07R
6HR MIN TEMP:  46; 6HR MAX TEMP:  50; 6HR PCP:  0.03;

EAGLE RIVER    CLOUDY    40  40  99 CALM      30.06R FOG
LAND O LAKES   CLOUDY    45  38  79 CALM      30.06S
PHILLIPS       CLOUDY    44  44  99 CALM      30.04R FOG
TOMAHAWK       CLOUDY    47  40  74 CALM      30.06R
MEDFORD        RAIN      49  43  79 CALM      30.06R
MERRILL        CLOUDY    49  43  79 S31G83    30.07S
$$

WIZ029-030-035-036-043>047-201300-
CENTRAL WISCONSIN

CITY           SKY/WX    TMP DP  RH WIND       PRES   REMARKS
WAUSAU         CLOUDY    49  42  77 S12       30.06S
6HR MIN TEMP:  48; 6HR MAX TEMP:  55; 6HR PCP:  0.04;

MOSINEE        LGT RAIN  48  45  87 SE7       30.10R
MARSHFIELD     CLOUDY    51  43  74 S12       30.07S
6HR MIN TEMP:  50; 6HR MAX TEMP:  57; 6HR PCP:  0.05;

STEVENS POINT  CLOUDY    50  39  64 SE6       30.10F
WAUPACA        DRIZZLE   54  43  66 SE3       30.13S
WAUTOMA        NOT AVBL
WISC RAPIDS    CLOUDY    56  37  49 S6        30.10S
6HR MIN TEMP:  54; 6HR MAX TEMP:  60; 6HR PCP: TRACE;

CAMP DOUGLAS   NOT AVBL
$$

WIZ011>013-019>022-031-037>040-048>050-201300-
NORTHEAST WISCONSIN

CITY           SKY/WX    TMP DP  RH WIND       PRES   REMARKS
ANTIGO         DRIZZLE   44  41  89 S10       30.08S
STURGEON BAY   CLOUDY    39  34  81 S15       30.17R WCI  31
6HR MIN TEMP:  39; 6HR MAX TEMP:  46;

GREEN BAY      CLOUDY    49  42  77 S5        30.16R
6HR MIN TEMP:  49; 6HR MAX TEMP:  52; 6HR PCP: TRACE;

MANITOWOC      NOT AVBL
APPLETON       DRIZZLE   48  41  76 S7        30.16R
CLINTONVILLE   RAIN      52  41  66 S3        30.13R
OSHKOSH        CLOUDY    50  40  68 S13       30.14S
6HR MIN TEMP:  50; 6HR MAX TEMP:  54; 6HR PCP: TRACE;

$$

WIZ032>034-041-042-053>061-201300-
SOUTHWEST WISCONSIN

CITY           SKY/WX    TMP DP  RH WIND       PRES   REMARKS
LA CROSSE      CLOUDY    58  42  55 N3        30.09R
6HR MIN TEMP:  58; 6HR MAX TEMP:  63; 6HR PCP: TRACE;

SPARTA         CLOUDY    61  37  41 SW3       30.09R
VIROQUA        CLOUDY    56  42  60 S10       30.10R
BOSCOBEL       CLOUDY    61  40  45 S7        30.11R
6HR MIN TEMP:  60; 6HR MAX TEMP:  63;

PRAIRIE DU CHI CLOUDY    61  38  43 S6        30.10R
PLATTEVILLE    CLOUDY    54  38  55 S6        30.14S
$$

WIZ056-057-062-063-064-067-068-201300-
SOUTH CENTRAL WISCONSIN

CITY           SKY/WX    TMP DP  RH WIND       PRES   REMARKS
BARABOO/DELLS  CLOUDY    54  38  53 S8        30.12R
LONE ROCK      NOT AVBL
WATERTOWN      CLOUDY    51  37  59 S7        30.17R
MADISON        LGT RAIN  52  42  69 S12       30.15S
6HR MIN TEMP:  52; 6HR MAX TEMP:  55; 6HR PCP: TRACE;

MIDDLETON      CLOUDY    53  39  59 S7        30.15S
MONROE         CLOUDY    51  38  60 S15       30.16R
JANESVILLE     NOT AVBL
$$

WIZ051-052-058>065-066-070>072-201300-
SOUTHEAST WISCONSIN

CITY           SKY/WX    TMP DP  RH WIND       PRES   REMARKS
MILWAUKEE      MOCLDY    48  34  58 S6        30.21R
6HR MIN TEMP:  46; 6HR MAX TEMP:  50;

WAUKESHA       CLEAR     46  34  61 S7        30.20R
MILWAUKEE/TIMM CLEAR     48  34  57 S8        30.20R
RACINE         MOCLDY    44  35  70 S7        30.22R
6HR MIN TEMP:  44; 6HR MAX TEMP:  49;

BURLINGTON     MOCLDY    46  36  69 S6        30.20R
KENOSHA        MOCLDY    48  33  56 S10       30.21R
6HR MIN TEMP:  43; 6HR MAX TEMP:  51;

FOND DU LAC    LGT RAIN  51  39  63 S10       30.15R
6HR MIN TEMP:  51; 6HR MAX TEMP:  54; 6HR PCP: TRACE;

SHEBOYGAN      CLOUDY    43  34  70 S7        30.19R
6HR MIN TEMP:  41; 6HR MAX TEMP:  46;

WEST BEND      CLOUDY    48  34  57 S3        30.18R
JUNEAU         RAIN      50  35  56 S9        30.18R
$$

LSZ147-162-201300-
LAKE SUPERIOR

STATION/POSITION TIME  TEMP    WIND        PRES    WAVE
                       AIR SEA DIR/SP/G            HT/PER
                 (UTC) (F)     (DEG/KT/KT) (MB)    (FT/S)
DEVILS ISLAND    1100   32     230/  9/ 10 1018.0R
PORT WING        1100   28     160/  4/  5 1017.6S
SAXON HARBOR     1100           CALM  /  2 1016.9R
$$

LMZ867-665-643>646-201300-
LAKE MICHIGAN

STATION/POSITION TIME  TEMP    WIND        PRES    WAVE
                       AIR SEA DIR/SP/G            HT/PER
                 (UTC) (F)     (DEG/KT/KT) (MB)    (FT/S)
NORTHPORT PIER   1100   40     160/ 10/ 18 1021.3F
SISTER BAY       1109   38     180/ 26/ 32   N/A
KEWAUNEE LAKESHO 1100   39     180/ 18/ 21 1022.0F
SHEBOYGAN LAKESH 1100   40     180/ 14/ 16 1022.8F
PORT WASHINGTON  1140   40     190/  5/  8 1023.4R
MILWAUKEE LAKESH 1100   43     160/  9/ 10   N/A
KENOSHA   LAKESH 1100   44     170/ 12/ 15   N/A
$$

TC  - TEMPERATURE IN CELSIUS
VSB - VISIBILITY IN STATUTE MILES
WCI - WIND CHILL INDEX
HX  - HEAT INDEX




USA.gov is the U.S. government's official web portal to all federal, state and local government web resources and services.